This demonstration page uses our WeatherBlox Daily Observations layout. Learn more.

Left ArrowRight Arrow

36.17497, -115.13722

Hourly Observations for July 16, 2017

Temp ( °F °C ) Dew Point ( °F °C ) Humidity (%) Winds ( mph kmh ) Pressure ( in mb ) Visibility ( mi km ) Precip ( " mm )
12:53 am 00:53 Clear 97 36.1 49 9.4 20 20 SE 9 15 29.78 1009 10 16 N/A
1:53 am 01:53 Clear 92 33.3 59 15 33 33 E 12 19 29.79 1009 10 16 N/A
2:53 am 02:53 Clear 91 32.8 59 15 34 34 E 10 17 29.79 1009 10 16 N/A
3:53 am 03:53 Clear 90 32.2 59 15 35 35 E 9 15 29.80 1009 10 16 N/A
4:53 am 04:53 Clear 89 31.7 60 15.6 38 38 NE 7 11 29.82 1010 10 16 N/A
5:53 am 05:53 Sunny 88 31.1 59 15 38 38 NE 7 11 29.83 1010 10 16 N/A
6:53 am 06:53 Sunny 89 31.7 59 15 36 36 E 13 20 29.86 1011 10 16 N/A
7:53 am 07:53 Sunny 91 32.8 59 15 34 34 ESE 10 17 29.87 1012 10 16 N/A
8:53 am 08:53 Sunny 94 34.4 58 14.4 30 30 S 9 15 29.87 1011 10 16 N/A
9:53 am 09:53 Sunny 96 35.6 56 13.3 26 26 SE 7 11 29.86 1011 10 16 N/A
10:53 am 10:53 Sunny 99 37.2 58 14.4 26 26 SSE 9 15 29.85 1011 10 16 N/A
11:53 am 11:53 Sunny 101 38.3 58 14.4 24 24 E 8 13 29.83 1010 10 16 N/A
12:53 pm 12:53 Sunny 103 39.4 53 11.7 19 19 S 8 13 29.81 1009 10 16 N/A
1:53 pm 13:53 Sunny 105 40.6 51 10.6 16 16 S 13 20 29.78 1009 10 16 N/A
2:53 pm 14:53 Sunny 106 41.1 50 10 15 15 SSE 7 11 29.75 1007 10 16 N/A
3:53 pm 15:53 Sunny 107 41.7 51 10.6 15 15 VRB 3 6 29.71 1006 10 16 N/A
4:53 pm 16:53 Sunny 107 41.7 49 9.4 14 14 N N/A 29.69 1005 10 16 N/A
5:53 pm 17:53 Sunny 107 41.7 55 12.8 18 18 SE 16 26 29.68 1005 10 16 N/A
6:51 pm 18:51 Sunny 102 39 52 11 18 18 SSW 14 22 29.50 999 10 16 N/A
6:53 pm 18:53 Sunny 103 39.4 52 11.1 18 18 SSW 13 20 29.70 1006 10 16 N/A
7:53 pm 19:53 Sunny 102 38.9 50 10 17 17 S 8 13 29.71 1006 10 16 N/A
8:53 pm 20:53 Clear 100 37.8 51 10.6 19 19 SE 14 22 29.72 1007 10 16 N/A
9:53 pm 21:53 Clear 98 36.7 56 13.3 24 24 S 15 24 29.74 1007 10 16 N/A
10:53 pm 22:53 Clear 97 36.1 58 14.4 27 27 ESE 10 17 29.76 1008 10 16 N/A
11:53 pm 23:53 Clear 92 33.3 56 13.3 30 30 E 17 28 29.79 1009 10 16 N/A

Powered by AerisWeather